EW3281 Weather Reports


time (UTC)temp
F
wind
direction
speed
knots
gust
knots
rain 1hr
in
rain 24hr
in
rain mn
in
humidity
%
barometer
mb
20260507153548 62 183 0.0 3.5 0.00 0.15 0.00 60 1005.9
20260507153047 61 225 1.7 3.5 0.00 0.15 0.15 60 1006.0
20260507152548 61 206 0.0 2.6 0.00 0.15 0.15 60 1006.1
20260507152048 60 229 0.0 2.6 0.00 0.15 0.15 64 1006.1
20260507151547 60 191 0.0 1.7 0.00 0.15 0.15 67 1006.2
20260507151044 59 221 0.0 0.9 0.00 0.15 0.15 68 1006.2
20260507150544 58 219 0.0 0.0 0.00 0.15 0.15 70 1006.2
20260507150045 59 221 0.0 0.9 0.00 0.15 0.15 69 1006.3
20260507145544 58 175 0.0 0.0 0.00 0.15 0.15 72 1006.3
20260507145044 58 211 0.0 0.0 0.00 0.15 0.15 75 1006.3
20260507144609 57 334 0.0 0.0 0.00 0.15 0.15 75 1006.4
20260507144144 57 231 0.0 0.9 0.00 0.15 0.15 75 1006.3
20260507143555 57 269 0.0 0.9 0.00 0.15 0.15 76 1006.2
20260507143057 57 217 0.0 0.0 0.00 0.15 0.15 78 1006.3
20260507142556 57 45 0.0 0.0 0.00 0.15 0.15 80 1006.4
20260507142059 57 236 0.0 0.0 0.00 0.15 0.15 78 1006.4
20260507141622 56 212 0.0 0.0 0.00 0.15 0.15 78 1006.3
20260507141055 56 218 0.0 0.0 0.00 0.15 0.15 80 1006.3
20260507140555 56 44 0.0 0.0 0.00 0.15 0.15 82 1006.5
20260507140056 55 297 0.0 0.0 0.00 0.15 0.15 81 1006.6
20260507135555 55 146 0.0 0.0 0.00 0.15 0.15 84 1006.7
20260507135055 54 233 0.0 0.0 0.00 0.15 0.15 86 1006.6
20260507134554 54 226 0.0 0.0 0.00 0.15 0.15 87 1006.6
20260507134155 53 241 0.0 0.0 0.00 0.15 0.15 88 1006.8
20260507133651 53 279 0.0 0.0 0.00 0.15 0.15 88 1006.8
20260507133049 53 240 0.0 0.0 0.00 0.15 0.15 88 1006.7
20260507132550 53 210 0.0 0.0 0.00 0.15 0.15 89 1006.7
20260507132050 52 240 0.0 0.0 0.00 0.15 0.15 88 1006.6
20260507131549 52 136 0.0 0.0 0.00 0.15 0.15 90 1006.7
20260507131049 52 52 0.0 0.0 0.00 0.15 0.15 90 1006.9
20260507130548 52 327 0.0 0.0 0.00 0.15 0.15 91 1007.1
20260507130048 52 254 0.0 0.0 0.01 0.15 0.15 92 1006.7
20260507125549 51 234 0.0 0.0 0.01 0.15 0.15 93 1006.4
20260507125048 51 230 0.0 0.0 0.01 0.15 0.15 93 1006.6
20260507124548 51 310 0.0 0.0 0.01 0.15 0.15 94 1006.6
20260507124148 51 243 0.0 0.0 0.01 0.15 0.15 94 1006.5
20260507123544 51 226 0.0 0.0 0.01 0.15 0.15 94 1006.6
20260507123047 50 231 0.0 0.0 0.01 0.15 0.15 94 1006.6
20260507122544 50 229 0.0 0.0 0.01 0.15 0.15 94 1006.8
20260507122043 50 244 0.0 0.0 0.02 0.15 0.15 95 1006.7
20260507121543 50 231 0.0 0.0 0.02 0.15 0.15 95 1006.8
20260507121043 50 316 0.0 0.0 0.03 0.15 0.15 95 1006.8
20260507120543 50 229 0.0 0.0 0.03 0.15 0.15 95 1007.0
20260507120045 50 228 0.0 0.0 0.03 0.15 0.15 95 1007.0
20260507115543 50 214 0.0 0.0 0.02 0.14 0.14 96 1006.9
20260507115042 50 224 0.0 0.0 0.02 0.14 0.14 96 1006.7
20260507114543 50 217 0.0 0.0 0.02 0.14 0.14 96 1006.5
20260507114144 50 236 0.0 0.0 0.02 0.14 0.14 96 1006.6
20260507113541 50 231 0.0 0.0 0.02 0.14 0.14 96 1006.4
20260507113040 50 231 0.0 0.0 0.02 0.14 0.14 96 1006.5
20260507112541 50 268 0.0 0.0 0.02 0.14 0.14 96 1006.3
20260507112040 50 268 0.0 0.0 0.02 0.14 0.14 96 1006.4
20260507111543 50 235 0.0 0.0 0.01 0.13 0.13 96 1006.5
20260507111040 0 0.0 0.0 0.00 0.12 0.12 1006.6
20260507110536 0 0.0 0.0 0.00 0.12 0.12 1006.7
20260507110034 0 0.0 0.0 0.00 0.12 0.12 1006.8
20260507105534 0 0.0 0.0 0.00 0.12 0.12 1006.2
20260507105031 0 0.0 0.0 0.00 0.12 0.12 1006.5
20260507104530 0 0.0 0.0 0.00 0.12 0.12 1006.4
20260507104130 0 0.0 0.0 0.00 0.12 0.12 1006.0
20260507103527 0 0.0 0.0 0.00 0.12 0.12 1006.1
20260507103025 0 0.0 0.0 0.00 0.12 0.12 1006.1
20260507102524 0 0.0 0.0 0.00 0.12 0.12 1005.7
20260507102022 0 0.0 0.0 0.00 0.12 0.12 1005.5
20260507101522 0 0.0 0.0 0.00 0.12 0.12 1005.6
20260507101020 0 0.0 0.0 0.00 0.12 0.12 1005.9
20260507100518 0 0.0 0.0 0.00 0.12 0.12 1005.9
20260507100019 0 0.0 0.0 0.00 0.12 0.12 1006.0
20260507095518 0 0.0 0.0 0.00 0.12 0.12 1005.9
20260507095014 0 0.0 0.0 0.00 0.12 0.12 1006.0
20260507094512 0 0.0 0.0 0.00 0.12 0.12 1006.1
20260507094111 0 0.0 0.0 0.00 0.12 0.12 1005.8
20260507093511 0 0.0 0.0 0.00 0.12 0.12 1005.6
20260507093012 0 0.0 0.0 0.00 0.12 0.12 1005.5
20260507092508 0 0.0 0.0 0.00 0.12 0.12 1005.7
20260507092009 0 0.0 0.0 0.00 0.12 0.12 1005.9
20260507091506 0 0.0 0.0 0.00 0.12 0.12 1005.6
20260507091003 0 0.0 0.0 0.00 0.12 0.12 1005.4
20260507090503 0 0.0 0.0 0.00 0.12 0.12 1005.2
20260507090100 0 0.0 0.0 0.00 0.12 0.12 1005.2
20260507090002 0 0.0 0.0 0.00 0.12 0.12 1005.2
20260507085559 0 0.0 0.0 0.00 0.12 0.12 1005.4
20260507085058 0 0.0 0.0 0.00 0.12 0.12 1006.0
20260507084557 0 0.0 0.0 0.00 0.12 0.12 1005.6
20260507084055 0 0.0 0.0 0.00 0.12 0.12 1005.3
20260507083554 0 0.0 0.0 0.00 0.12 0.12 1005.2
20260507083053 0 0.0 0.0 0.02 0.12 0.12 1005.4
20260507082555 0 0.0 0.0 0.03 0.12 0.12 1005.2
20260507082051 0 0.0 0.0 0.03 0.12 0.12 1005.0
20260507081549 0 0.0 0.0 0.03 0.12 0.12 1005.1
20260507081048 0 0.0 0.0 0.03 0.12 0.12 1005.4
20260507080546 0 0.0 0.0 0.03 0.12 0.12 1005.0
20260507080045 0 0.0 0.0 0.03 0.12 0.12 1005.3
20260507075543 0 0.0 0.0 0.03 0.12 0.12 1005.2
20260507075045 53 238 0.0 0.0 0.03 0.12 0.12 97 1005.2
20260507074542 53 238 0.0 0.0 0.03 0.12 0.12 97 1005.3
20260507074041 53 238 0.0 0.0 0.03 0.12 0.12 97 1004.9
20260507073543 54 241 0.0 0.0 0.03 0.12 0.12 97 1005.0
20260507073042 54 264 0.0 0.0 0.02 0.11 0.11 97 1004.8
20260507072541 54 248 0.0 0.0 0.00 0.09 0.09 97 1004.8
20260507072042 54 248 0.0 0.0 0.00 0.09 0.09 97 1004.3
20260507071541 54 248 0.0 0.0 0.00 0.09 0.09 97 1004.0
20260507071041 54 248 0.0 0.0 0.00 0.09 0.09 97 1004.1
20260507070541 54 248 0.0 0.0 0.00 0.09 0.09 97 1003.9
20260507070044 54 248 0.0 0.0 0.00 0.09 0.09 97 1003.9
20260507065544 54 248 0.0 0.0 0.00 0.09 0.09 97 1003.8
20260507065039 54 248 0.0 0.0 0.00 0.09 0.09 96 1003.9
20260507064539 54 248 0.0 0.0 0.00 0.09 0.09 96 1004.2
20260507064038 54 248 0.0 0.0 0.00 0.09 0.09 96 1004.3
20260507063536 54 248 0.0 0.0 0.00 0.09 0.09 96 1004.3
20260507063045 54 248 0.0 0.0 0.00 0.09 0.09 96 1004.3
20260507062537 54 248 0.0 0.0 0.00 0.09 0.09 96 1004.3
20260507062037 54 248 0.0 0.0 0.00 0.09 0.09 96 1004.4
20260507061536 54 248 0.0 0.0 0.00 0.09 0.09 96 1004.2
20260507061036 54 248 0.0 0.0 0.00 0.09 0.09 96 1004.3
20260507060535 54 257 0.0 0.0 0.00 0.09 0.09 96 1004.3
20260507060047 54 257 0.0 0.0 0.00 0.09 0.09 96 1004.3
20260507055536 54 253 0.0 0.0 0.00 0.09 0.09 96 1004.5
20260507055033 54 82 0.0 0.0 0.00 0.09 0.09 96 1004.7
20260507054544 54 220 0.0 0.0 0.00 0.09 0.09 96 1004.8
20260507054034 54 220 0.0 0.0 0.00 0.09 0.09 96 1004.7
20260507053535 54 220 0.0 0.0 0.00 0.09 0.09 96 1004.8
20260507053036 54 214 0.0 0.0 0.00 0.09 0.09 96 1004.9
20260507052533 54 222 0.0 0.0 0.00 0.09 0.09 96 1005.1
20260507052033 54 220 0.0 0.0 0.00 0.09 0.09 96 1005.0
20260507051534 54 23 0.0 0.0 0.00 0.09 0.09 96 1005.0
20260507051036 54 164 0.0 0.0 0.00 0.09 0.09 96 1005.2
20260507050534 54 164 0.0 0.0 0.00 0.09 0.09 96 1005.1
20260507050034 54 165 0.0 0.0 0.00 0.09 0.09 96 1005.3
20260507045532 54 41 0.0 0.0 0.00 0.09 0.09 96 1005.4
20260507045032 54 41 0.0 0.0 0.00 0.09 0.09 96 1005.2
20260507044547 54 32 0.0 0.0 0.00 0.09 0.09 96 1005.2
20260507044033 54 108 0.0 0.0 0.00 0.09 0.09 96 1005.2
20260507043531 54 108 0.0 0.0 0.00 0.09 0.09 96 1005.2
20260507043032 54 108 0.0 0.0 0.00 0.09 0.09 96 1005.3
20260507042532 54 63 0.0 0.0 0.00 0.09 0.09 96 1005.2
20260507042031 54 115 0.0 0.0 0.00 0.09 0.09 96 1005.2
20260507041530 54 342 0.0 0.0 0.00 0.09 0.09 96 1005.1
20260507041030 54 77 0.0 0.0 0.00 0.09 0.09 96 1005.2
20260507040530 54 49 0.0 0.0 0.00 0.09 0.09 96 1005.1
20260507040034 54 25 0.0 0.0 0.00 0.09 0.09 96 1005.4
20260507035529 55 30 0.0 0.0 0.00 0.09 0.09 96 1005.4
20260507035029 55 47 0.0 0.0 0.00 0.09 0.09 96 1005.2
20260507034534 55 53 0.0 0.0 0.00 0.09 0.09 96 1005.1
20260507034028 55 18 0.0 0.0 0.00 0.09 0.09 96 1005.4
20260507033527 55 19 0.0 0.0 0.00 0.09 0.09 96 1005.5
20260507033028 55 19 0.0 0.0 0.00 0.09 0.09 96 1005.4
20260507032526 55 339 0.0 0.0 0.00 0.09 0.09 96 1005.5
20260507032030 55 263 0.0 0.0 0.00 0.09 0.09 96 1005.7
20260507031526 55 241 0.0 0.0 0.00 0.09 0.09 96 1005.8
20260507031026 55 240 0.0 0.0 0.00 0.09 0.09 96 1005.6
20260507030531 55 259 0.0 0.0 0.00 0.09 0.09 96 1005.3
20260507030026 55 354 0.0 0.0 0.00 0.09 0.09 96 1005.4
20260507025525 55 66 0.0 0.0 0.00 0.09 0.09 96 1005.4
20260507025025 55 64 0.0 0.0 0.00 0.09 0.09 96 1005.4
20260507024525 55 48 0.0 0.0 0.00 0.09 0.09 96 1005.5
20260507024026 55 158 0.0 0.0 0.00 0.09 0.09 96 1005.4
20260507023529 55 158 0.0 0.0 0.00 0.09 0.09 96 1005.4
20260507023026 55 127 0.0 0.0 0.00 0.09 0.09 96 1005.6
20260507022530 55 223 0.0 0.0 0.00 0.09 0.09 96 1005.5
20260507022029 55 32 0.0 0.0 0.00 0.09 0.09 96 1005.6
20260507021529 55 99 0.0 0.0 0.00 0.09 0.09 96 1005.7
20260507021028 54 68 0.0 0.0 0.00 0.09 0.09 96 1005.5
20260507020524 54 77 0.0 0.0 0.00 0.09 0.09 96 1005.5
20260507020032 55 7 0.0 0.0 0.00 0.09 0.09 96 1005.5
20260507015527 55 324 0.0 0.0 0.00 0.09 0.09 96 1005.6
20260507015023 55 212 0.0 0.0 0.00 0.09 0.09 96 1005.5
20260507014522 55 113 0.0 0.0 0.00 0.09 0.09 96 1005.6
20260507014025 55 8 0.0 0.0 0.00 0.09 0.09 96 1005.8
20260507013520 55 195 0.0 0.0 0.00 0.09 0.09 96 1005.8
20260507013021 55 66 0.0 0.0 0.00 0.09 0.09 96 1005.8
20260507012521 55 135 0.0 0.0 0.00 0.09 0.09 96 1005.8
20260507012020 55 111 0.0 0.0 0.00 0.09 0.09 96 1005.9
20260507011521 55 111 0.0 0.0 0.00 0.09 0.09 96 1006.0
20260507011021 55 160 0.0 0.0 0.00 0.09 0.09 96 1006.0
20260507010520 55 79 0.0 0.0 0.00 0.09 0.09 96 1006.0
20260507010026 55 46 0.0 0.0 0.00 0.09 0.09 96 1006.1
20260507005519 55 200 0.0 0.0 0.00 0.09 0.09 96 1006.1
20260507005019 55 44 0.0 0.0 0.00 0.09 0.09 96 1006.1
20260507004524 55 46 0.0 0.0 0.00 0.09 0.09 96 1006.1
20260507004019 55 49 0.0 0.0 0.00 0.09 0.09 96 1006.0
20260507003520 55 53 0.0 0.0 0.00 0.09 0.09 96 1006.1
20260507003026 55 90 0.0 0.0 0.00 0.09 0.09 96 1006.0
20260507002519 55 190 0.0 0.0 0.00 0.09 0.09 96 1006.0
20260507002020 55 27 0.0 0.0 0.00 0.09 0.09 96 1005.9
20260507001524 55 129 0.0 0.9 0.00 0.09 0.09 96 1005.9
20260507001020 55 58 0.0 0.9 0.00 0.09 0.09 96 1005.9
20260507000519 55 253 0.0 0.0 0.00 0.09 0.09 96 1005.9
20260507000018 55 84 0.0 0.0 0.00 0.09 0.09 96 1006.0
20260506235517 55 271 0.0 0.0 0.00 0.09 0.09 96 1005.9
20260506235017 55 88 0.0 0.0 0.00 0.09 0.09 96 1006.0
20260506234517 55 224 0.0 0.0 0.00 0.09 0.09 96 1005.9
20260506234018 55 85 0.0 0.0 0.00 0.09 0.09 96 1005.9
20260506233514 55 164 0.0 0.0 0.01 0.09 0.09 96 1005.9
20260506233014 55 40 0.0 0.0 0.01 0.09 0.09 96 1005.9
20260506232514 55 184 0.0 0.0 0.01 0.09 0.09 96 1005.9
20260506232014 55 74 0.0 0.0 0.01 0.09 0.09 96 1005.9
20260506231514 55 60 0.0 0.0 0.02 0.09 0.09 96 1005.9
20260506231014 55 22 0.0 0.9 0.04 0.09 0.09 96 1005.9
20260506230513 54 120 0.0 0.9 0.05 0.09 0.09 96 1005.8
20260506230012 54 111 0.0 3.5 0.06 0.09 0.09 96 1005.8
20260506225512 54 75 0.0 3.5 0.06 0.09 0.09 96 1005.8
20260506225113 54 64 0.0 3.5 0.06 0.09 0.09 95 1005.8
20260506224511 54 52 0.0 0.9 0.07 0.09 0.09 95 1005.8
20260506224010 54 151 0.0 0.9 0.07 0.09 0.09 95 1005.8
20260506223511 54 62 0.0 0.0 0.06 0.08 0.08 95 1005.9
20260506223009 54 59 0.0 0.0 0.06 0.08 0.08 95 1005.9
20260506222511 55 78 0.0 0.0 0.06 0.08 0.08 95 1005.8
20260506222009 55 78 0.0 0.0 0.06 0.08 0.08 95 1005.8
20260506221507 55 49 0.0 0.0 0.06 0.07 0.07 95 1006.0
20260506221005 55 345 0.0 3.5 0.04 0.05 0.05 95 1006.1
20260506220506 55 60 0.0 3.5 0.04 0.05 0.05 95 1006.1
20260506220005 55 25 0.0 0.0 0.03 0.04 0.04 94 1006.3
20260506215505 55 306 0.0 0.0 0.02 0.03 0.03 94 1006.2
20260506215005 55 27 0.0 0.0 0.02 0.03 0.03 94 1006.4
20260506214505 55 143 0.0 0.0 0.01 0.02 0.02 94 1006.3
20260506214008 55 86 0.0 0.9 0.02 0.02 0.02 94 1006.4
20260506213502 55 53 0.0 0.9 0.02 0.02 0.02 94 1006.4
20260506213004 55 94 0.0 0.9 0.02 0.02 0.02 94 1006.4
20260506212501 55 349 0.0 0.9 0.02 0.02 0.02 93 1006.4
20260506212101 55 124 0.0 0.9 0.02 0.02 0.02 93 1006.5
20260506211559 55 85 0.0 0.0 0.01 0.01 0.01 93 1006.7
20260506211100 55 107 0.0 0.9 0.01 0.01 0.01 93 1006.6
20260506210058 55 45 0.0 0.9 0.01 0.01 0.01 92 1006.6
20260506205557 56 62 0.0 0.9 0.01 0.01 0.01 92 1006.7
20260506205056 56 52 0.0 0.9 0.01 0.01 0.01 92 1006.8
20260506204615 56 246 0.0 0.0 0.01 0.01 0.01 91 1006.8
20260506204054 56 219 0.0 1.7 0.01 0.01 0.01 91 1007.0
20260506203554 56 70 0.0 1.7 0.00 0.00 0.00 91 1006.9
20260506203055 56 90 0.0 0.0 0.00 0.00 0.00 91 1006.8
20260506202553 57 327 0.0 0.0 0.00 0.00 0.00 91 1006.9
20260506202054 57 217 0.0 0.9 0.00 0.00 0.00 91 1006.9
20260506201553 57 104 0.0 0.9 0.00 0.00 0.00 91 1006.9
20260506201052 57 52 0.0 0.0 0.00 0.00 0.00 90 1006.9
20260506200035 57 80 0.0 0.0 0.00 0.00 0.00 90 1007.0
20260506195534 57 356 0.0 0.0 0.00 0.00 0.00 90 1007.2
20260506195033 57 58 0.0 0.0 0.00 0.00 0.00 91 1007.1
20260506194532 57 198 0.0 0.0 0.00 0.00 0.00 90 1007.2
20260506194035 58 99 0.0 0.0 0.00 0.00 0.00 89 1007.2
20260506193530 58 8 0.0 0.0 0.00 0.00 0.00 88 1007.2
20260506193029 58 98 0.0 0.0 0.00 0.00 0.00 87 1007.3
20260506192527 59 62 0.0 0.9 0.00 0.00 0.00 86 1007.3
20260506192026 59 88 0.0 1.7 0.00 0.00 0.00 84 1007.2
20260506191526 59 167 0.0 1.7 0.00 0.00 0.00 83 1007.3
20260506191024 60 226 0.0 4.3 0.00 0.00 0.00 81 1007.3
20260506190519 60 89 0.0 4.3 0.00 0.00 0.00 81 1007.3
20260506190017 60 138 0.0 4.3 0.00 0.00 0.00 81 1007.4
20260506185515 61 30 0.0 7.8 0.00 0.00 0.00 80 1007.4
20260506185017 61 131 0.0 7.8 0.00 0.00 0.00 80 1007.5
20260506184514 61 261 0.0 0.9 0.00 0.00 0.00 80 1007.3
20260506184014 61 217 0.0 0.9 0.00 0.00 0.00 80 1007.4
20260506183513 61 287 0.0 0.0 0.00 0.00 0.00 80 1007.5
20260506183012 61 84 0.0 0.9 0.00 0.00 0.00 79 1007.5
20260506182511 61 81 0.0 0.0 0.00 0.00 0.00 79 1007.7
20260506182010 62 183 0.0 0.0 0.00 0.00 0.00 79 1007.9
20260506181509 62 312 0.0 0.0 0.00 0.00 0.00 78 1007.8
20260506181009 62 96 0.0 0.0 0.00 0.00 0.00 78 1007.8
20260506180036 62 87 0.0 0.9 0.00 0.00 0.00 78 1007.8
20260506175532 62 169 0.0 0.9 0.00 0.00 0.00 78 1008.0
20260506175028 63 56 0.0 0.0 0.00 0.00 0.00 77 1008.0
20260506174532 63 70 0.0 1.7 0.00 0.00 0.00 76 1008.2
20260506174027 63 70 0.0 1.7 0.00 0.00 0.00 76 1008.2
20260506173526 64 74 0.0 0.9 0.00 0.00 0.00 75 1008.2
20260506173026 64 49 0.0 0.9 0.00 0.00 0.00 75 1008.5
20260506172524 64 332 0.0 0.9 0.00 0.00 0.00 75 1008.6
20260506172025 64 338 0.0 2.6 0.00 0.00 0.00 74 1008.4
20260506171527 65 76 0.0 2.6 0.00 0.00 0.00 74 1008.3
20260506171024 65 150 0.0 0.9 0.00 0.00 0.00 74 1008.4
20260506170055 65 316 0.0 0.9 0.00 0.00 0.00 74 1008.5
20260506165551 65 183 0.0 0.0 0.00 0.00 0.00 75 1008.4
20260506165051 64 50 0.0 4.3 0.00 0.00 0.00 75 1008.6
20260506164557 64 120 0.0 4.3 0.00 0.00 0.00 75 1008.6
20260506164049 64 82 0.0 2.6 0.00 0.00 0.00 76 1008.8
20260506163549 64 36 0.0 3.5 0.00 0.00 0.00 77 1009.0
20260506163049 63 80 0.0 5.2 0.00 0.00 0.00 76 1008.8
20260506162547 64 98 0.0 2.6 0.00 0.00 0.00 75 1009.0
20260506162050 64 296 0.0 1.7 0.00 0.00 0.00 75 1009.1
20260506161546 64 79 0.0 1.7 0.00 0.00 0.00 74 1008.8
20260506161045 64 210 0.0 8.7 0.00 0.00 0.00 73 1008.9
20260506160046 65 118 0.0 3.5 0.00 0.00 0.00 73 1009.3
20260506155544 65 97 0.0 0.9 0.00 0.00 0.00 73 1009.1
20260506155047 65 114 0.0 1.7 0.00 0.00 0.00 73 1009.2
20260506154552 65 188 0.0 1.7 0.00 0.00 0.00 74 1009.3